This is the latest recevied weather packets stored in our database for station/object ON7MOR-11. If no packets are shown the sender has not sent any weather packets the latest 10 day(s).
| Time | Temp. | Humidity | Pressure | Rain* | Wind** | Luminosity | Snow |
|---|---|---|---|---|---|---|---|
| 1777476470 | 20.56° C | 32% | 1024.8 hPa | - | - | - | - |
| 1777474670 | 20.56° C | 32% | 1024.9 hPa | - | - | - | - |
| 1777472870 | 20.56° C | 33% | 1025.2 hPa | - | - | - | - |
| 1777471970 | 20.56° C | 32% | 1025.3 hPa | - | - | - | - |
| 1777471069 | 20.56° C | 32% | 1025.1 hPa | - | - | - | - |
| 1777469270 | 20° C | 33% | 1025.3 hPa | - | - | - | - |
| 1777468370 | 20° C | 33% | 1025.4 hPa | - | - | - | - |
| 1777467470 | 20° C | 33% | 1025.5 hPa | - | - | - | - |
| 1777465670 | 20° C | 33% | 1025.7 hPa | - | - | - | - |
| 1777464770 | 20° C | 33% | 1025.8 hPa | - | - | - | - |
| 1777463870 | 19.44° C | 33% | 1025.8 hPa | - | - | - | - |
| 1777462970 | 19.44° C | 33% | 1025.9 hPa | - | - | - | - |
| 1777462070 | 19.44° C | 33% | 1025.9 hPa | - | - | - | - |
| 1777461169 | 19.44° C | 29% | 1026 hPa | - | - | - | - |
| 1777460269 | 19.44° C | 29% | 1026 hPa | - | - | - | - |
| 1777459369 | 18.89° C | 29% | 1026.1 hPa | - | - | - | - |
| 1777458469 | 18.89° C | 29% | 1026 hPa | - | - | - | - |
| 1777457569 | 18.89° C | 30% | 1026.1 hPa | - | - | - | - |
| 1777456669 | 19.44° C | 31% | 1026.3 hPa | - | - | - | - |
| 1777454869 | 20° C | 29% | 1026.3 hPa | - | - | - | - |
| 1777453969 | 20.56° C | 28% | 1026.4 hPa | - | - | - | - |
| 1777453068 | 20.56° C | 30% | 1026.4 hPa | - | - | - | - |
| 1777452168 | 21.11° C | 29% | 1026.5 hPa | - | - | - | - |
| 1777451268 | 21.11° C | 29% | 1026.3 hPa | - | - | - | - |
| 1777450368 | 20.56° C | 31% | 1026.4 hPa | - | - | - | - |
* Rain since midnight (hover to see other rain measurements)
** Current wind speed in m/s (hover to see current wind gust speed)